Regional Weather Roundup
Issued by NWS Portland, ME

Home | Current Version | Previous Version | Text Only | Print | Product List | Glossary On
Versions: 1 2 3 4 5 6 7 8 9 10 11 12 13 14 15 16 17 18 19 20 21 22 23 24 25 26 27 28 29 30 31 32 33 34 35 36 37 38 39 40 41 42 43 44 45 46 47 48 49 50
635
ASUS41 KGYX 262210
RWRGYX
WEATHER ROUNDUP FOR MAINE AND NEW HAMPSHIRE
NATIONAL WEATHER SERVICE GRAY ME
600 PM EDT THU APR 26 2018

MEZ002-005-006-010-012-015-018-020-021-024-026-027-029-262300-
MAINE

CITY           SKY/WX    TMP DP  RH WIND       PRES   REMARKS
PORTLAND       FAIR      64  42  44 W14G23    29.59R
SANFORD        PTSUNNY   61  43  51 W17G29    29.63R
BAR HARBOR     CLOUDY    48  48 100 SW6       29.57R FOG
WISCASSET      FAIR      60  53  77 VRB6      29.59R
ROCKLAND       PTSUNNY   53  51  93 SW6       29.58R
FRYEBURG       CLOUDY    59  47  64 W8G20     29.61R
LEWISTONAUBURN LGT RAIN  58  52  80 W9        29.60R
AUGUSTA        HVY RAIN  57  53  86 W9        29.58R VSB 3/4
WATERVILLE     CLOUDY    58  53  84 SW6       29.54R
BANGOR         PTSUNNY   53  52  96 SW5       29.55R
GREENVILLE       N/A     50  50 100 CALM      29.51R
MILLINOCKET    CLOUDY    53  51  93 VRB5      29.52R
HOULTON        NOT AVBL
PRESQUE ISLE   CLOUDY    52  50  93 S10       29.46R
FRENCHVILLE    LGT RAIN  51  48  89 SW6       29.41S VSB 1/4
CARIBOU        CLOUDY    51  49  92 SW9       29.43R FOG
$$

NHZ002-005-008-009-011-012-014-262300-
NEW HAMPSHIRE

CITY           SKY/WX    TMP DP  RH WIND       PRES   REMARKS
PORTSMOUTH     MOSUNNY   62  40  45 W15G26    29.63R
ROCHESTER      CLOUDY    60  42  51 W8G16     29.64R
NASHUA         PTSUNNY   59  41  51 W13G23    29.71R
MANCHESTER     FAIR      62  39  42 W17G24    29.68R
CONCORD        PTSUNNY   57  40  52 W18G29    29.69R
LACONIA        CLOUDY    57  41  55 W14G23    29.68R
PLYMOUTH       FAIR      58  41  52 W13G20    29.66R
BERLIN         CLOUDY    51  46  83 VRB6      29.63R
WHITEFIELD     LGT RAIN  50  48  93 VRB5      29.66R
JAFFREY        PTSUNNY   53  40  61 SW10G23   29.74R
KEENE          CLOUDY    55  40  56 VRB6      29.76R
LEBANON        PTSUNNY   57  39  51 SW10      29.69R
MT WASHINGTON  SNOWSHWR  32  32 100 W58G63      N/A  VSB 1/16WCI  13
$$

VTZ005-007-008-262300-
VERMONT

CITY           SKY/WX    TMP DP  RH WIND       PRES   REMARKS
ST JOHNSBURY     N/A     54  44  69 MISG      29.65R
MONTPELIER     CLOUDY    50  42  74 NW6       29.72R
BURLINGTON     LGT RAIN  53  40  61 NW13      29.71R
$$

MAZ007-012-024-CTZ003-RIZ002-NYZ038-NYZ072-262300-
SOUTHERN NEW ENGLAND AND NY

CITY           SKY/WX    TMP DP  RH WIND       PRES   REMARKS
BOSTON         FAIR      64  40  41 W17G24    29.69R
WORCESTER      FAIR      56  39  53 W16G31    29.73R
NANTUCKET      FAIR      51  46  83 SW18      29.75R
PROVIDENCE     FAIR      67  42  40 W15G26    29.72R
HARTFORD       FAIR      63  40  42 NW21      29.76R
ALBANY         PTSUNNY   51  40  65 W12G24    29.83R
NEW YORK CITY  FAIR      70  40  33 W12       29.77R
$$

ANZ081-ANZ082-ANZ150-NHZ014-MEZ023>029-262300-
COASTAL MARINE OBSERVATIONS

STATION/POSITION TIME  TEMP    WIND        PRES    WAVE
                       AIR SEA DIR/SP/G            HT/PER
                 (UTC) (F)     (DEG/KT/KT) (MB)    (FT/S)
MOUNT DESERT ROC 2200   43     200/ 18/ 19 1002.1R
MATINICUS ROCK   2200   44     200/ 12/ 13 1001.5R
ISLE OF SHOALS   2200   58     250/ 21/ 23 1003.4R
JEFFREYS LEDGE   2136      43                N/A     7/13
CASHES LEDGE BUO 2150   49 43              1002.4R   9/12
$$

.............KEY..............
   WCI - WIND CHILL
   TC  - TEMPERATURE IN CELSIUS
   VSB - VISIBILITY IN MILES
   HX  - HEAT INDEX
   FAIR- INDICATES FEW OR NO CLOUDS BELOW 12,000 FT, WITH NO
         SIGNIFICANT WEATHER AND/OR OBSTRUCTIONS TO VISIBILITY.






USA.gov is the U.S. government's official web portal to all federal, state and local government web resources and services.